Flag for Austria Weather past 2 weeks in Amstetten, Lower Austria, Austria

Now
73 °F

Scattered clouds.


Feels Like: 77 °F
Forecast: 46 / 69 °F
Wind: N/A

Location: Linz / Hoersching-Flughafen

Current Time: Aug 22, 2014 at 5:43:04 PM

Latest Report: Aug 22, 2014 at 5:00 PM


Visibility: 22 mi

Pressure: 29.91 "Hg

Humidity: 48%

Dew point: 52 °F

Location of AmstettenLocation

Historic Weather in Amstetten — Graph

°F

Amstetten temperature yesterday

Maximum temperature yesterday: 67 °F (at 5:00 PM)
Minimum temperature yesterday: 53 °F (at 6:00 AM)
Average temperature yesterday: 59 °F

Past Weeks' High & Low Weather Summary

 TemperatureHumidityPressure
High83 °F (Aug 10, 5:00 PM)97% (Aug 21, 2:00 AM)30.15 "Hg (Aug 21, 2:00 AM)
Low51 °F (Aug 17, 4:00 AM)39% (Aug 8, 5:00 PM)29.68 "Hg (Aug 13, 7:00 PM)
Average63 °F77%29.96 "Hg
* Reported Aug 7 4:00 PM — Aug 22 4:00 PM, Amstetten, Weather by CustomWeather, © 2014

Note: Actual official high and low records may vary slightly from our data, if they occured in-between our weather recording intervals... More about our weather records

Advertising

Amstetten weather history for previous 24 hours

 ConditionsComfort  
Time TempWeatherWind HumidityBarometerVisibility
4:00 PM
Aug 22
73 °FPassing clouds.N/A50%29.92 "Hg19 mi
3:00 PM71 °FPassing clouds.N/A50%29.94 "Hg28 mi
2:00 PM70 °FPassing clouds.N/A57%29.96 "Hg22 mi
1:00 PM67 °FScattered clouds.N/A62%29.98 "Hg19 mi
12:00 PM66 °FScattered clouds.N/A65%29.99 "Hg15 mi
11:00 AM62 °FPartly sunny.N/A77%30.01 "Hg19 mi
10:00 AM62 °FPartly sunny.5 mph79%30.01 "Hg22 mi
9:00 AM59 °FScattered clouds.6 mph81%30.01 "Hg14 mi
8:00 AM54 °FPassing clouds.N/A92%30.03 "Hg9 mi
7:00 AM53 °FPartly sunny.N/A94%30.03 "Hg11 mi
6:00 AM53 °FPassing clouds.N/A89%30.03 "Hg19 mi
5:00 AM53 °FOvercast.N/A89%30.03 "Hg19 mi
4:00 AM54 °FOvercast.N/A89%30.03 "Hg16 mi
3:00 AM56 °FOvercast.N/A86%30.03 "Hg25 mi
2:00 AM56 °FOvercast.N/A81%30.03 "Hg18 mi
1:00 AM56 °FOvercast.N/A82%30.04 "Hg22 mi
12:00 AM56 °FOvercast.N/A82%30.05 "Hg28 mi
11:00 PM
Aug 21
56 °FPassing clouds.N/A84%30.05 "Hg22 mi
10:00 PM57 °FPassing clouds.N/A82%30.04 "Hg25 mi
9:00 PM58 °FPassing clouds.N/A82%30.04 "Hg28 mi
8:00 PM62 °FPartly sunny.N/A58%30.02 "Hg31 mi
7:00 PM65 °FScattered clouds.N/A52%30.01 "Hg28 mi
6:00 PM67 °FScattered clouds.N/A53%30.01 "Hg19 mi
5:00 PM67 °FScattered clouds.N/A55%30.01 "Hg17 mi
Weather by CustomWeather, © 2014

See weather overviewHow to use our weather pages